カタログに戻る

STARLINK-37888

運用中通信VLEO
NORAD 69535·PAYLOAD·🇺🇸 United States

打ち上げ Jun 12, 2026 から Cape Canaveral Space Force Station

Loading…

次のパス (今後24時間)

TLE

最新Source: CelesTrak SupGP

元期: Sep 15, 2026, 04:11 UTC

1 69535C 26133AD  26258.17479167 -.00046369  00000+0 -13700-2 0  2588
2 69535  53.1571 254.8256 0001368  83.1916 257.7132 15.34414191    11

AllMySatでSTARLINK-37888をリアルタイム追跡

Download on the App Store